Simultaneous Nadir Overpasses (SNOs) Predictions

Prediction of SNOs between METOP-A and TERRA Satellite Orbit:

Table of predicted SNOs for the next 14.0 days since TLE Epoch: 8/28/2013
Index Date (METOP-A) Time (METOP-A) Lat,Lon (METOP-A) SZA (METOP-A ) Date (TERRA) Time (TERRA) Lat,Lon (TERRA) SZA (TERRA ) Distance(km) Time Diff (sec)
1 08/30/2013 13:53:00 81.30, 18.70 75.27 08/30/2013 13:53:39 81.30, 18.67 75.29 0.51 39
2 08/30/2013 14:43:40 -81.30,-173.74 104.69 08/30/2013 14:43:06 -81.30,-173.76 104.71 0.64 34
3 09/02/2013 09:27:22 81.30, 85.01 76.30 09/02/2013 09:27:53 81.30, 85.15 76.33 2.50 31
4 09/02/2013 10:18:02 -81.30,-107.43 103.66 09/02/2013 10:17:20 -81.30,-107.26 103.67 2.88 42
5 09/05/2013 05:01:44 81.30, 151.69 77.39 09/05/2013 05:02:08 81.30, 151.54 77.38 2.54 24
6 09/05/2013 05:52:24 -81.31, -40.75 102.57 09/05/2013 05:51:35 -81.30, -40.85 102.61 1.87 49
7 09/08/2013 00:36:07 81.30,-142.06 78.44 09/08/2013 00:36:23 81.29,-142.18 78.43 2.26 16
8 09/08/2013 01:26:46 -81.31, 25.91 101.47 09/08/2013 01:25:49 -81.31, 25.83 101.51 1.45 57
9 09/10/2013 20:10:28 81.30, -75.44 79.55 09/10/2013 20:10:36 81.30, -75.62 79.53 3.13 8




NCC Satellite Simultaneous Nadir Overpasses (SNOs) Prediction Service
